De Queen, AR

5:21 AM CST on November 21, 2017 (GMT -0600)
Helms Sevier County

Weather History for KDEQ - May, 2012

Change the Weather History Date:

Sunday, May 20, 2012

  Actual Average Record
Temperature  
Mean Temperature 74 °F 71 °F  
Max Temperature 88 °F 82 °F 94 °F (2005)
Min Temperature 59 °F 60 °F 43 °F (1981)
Degree Days  
Heating Degree Days 0 0  
Month to date heating degree days 0 21  
Since 1 July heating degree days 2414 3042  
Cooling Degree Days 9 6  
Month to date cooling degree days 130 87  
Year to date cooling degree days 251 134  
Growing Degree Days 23 (Base 50)    
Moisture  
Dew Point 62 °F    
Average Humidity 70    
Maximum Humidity 100    
Minimum Humidity 39    
Precipitation  
Precipitation 0.00 in 0.16 in 2.60 in (1903)
Month to date precipitation 0.76 4.07  
Year to date precipitation 13.26 19.64  
Snow  
Snow 0.00 in - - ()
Month to date snowfall 0.0  
Since 1 July snowfall 2.3  
Snow Depth 0.00 in    
Sea Level Pressure  
Sea Level Pressure 30.06 in    
Wind  
Wind Speed 2 mph (SSW)    
Max Wind Speed 12 mph    
Max Gust Speed 17 mph    
Visibility 5 miles    
Events Fog    
T = Trace of Precipitation, MM = Missing Value Source: NWS Daily Summary

Daily Weather History Graph

Daily Weather History Graph

Search for Another Location

Airport or City:

Trip Planner

Search our weather history database for the weather conditions in past years. The results will help you decide how hot, cold, wet, or windy it might be!

Date:

Astronomy

May. 20, 2012 Rise Set
Actual Time 6:12 AM CDT 8:16 PM CDT
Civil Twilight 5:44 AM CDT 8:44 PM CDT
Nautical Twilight 5:10 AM CDT 9:18 PM CDT
Astronomical Twilight 4:33 AM CDT 9:55 PM CDT
Moon 5:53 AM CDT (5/20) 8:15 PM CDT (5/20)
Length of Visible Light 15h 00m
Length of Day
14h 03m
Waning Crescent, 0% of the Moon is Illuminated
May 20
Waning Crescent
May 20
New
May 28
First Quarter
Jun 4
Full
Jun 11
Last Quarter

Hourly Weather History & Observations

Time (CDT) Temp. Heat Index Dew Point Humidity Pressure Visibility Wind Dir Wind Speed Gust Speed Precip Events Conditions
12:53 AM 64.0 °F - 62.1 °F 93% 29.99 in 5.0 mi Calm Calm - N/A   Clear
1:53 AM 63.0 °F - 61.0 °F 93% 30.00 in 5.0 mi Calm Calm - N/A   Clear
2:53 AM 62.1 °F - 61.0 °F 96% 30.00 in 4.0 mi Calm Calm - N/A   Clear
3:53 AM 61.0 °F - 60.1 °F 97% 30.01 in 3.0 mi Calm Calm - N/A   Clear
4:53 AM 61.0 °F - 59.0 °F 93% 30.03 in 4.0 mi Calm Calm - N/A   Clear
5:30 AM 60.8 °F - 59.0 °F 94% 30.05 in 1.8 mi Calm Calm - N/A   Clear
5:43 AM 59.0 °F - 59.0 °F 100% 30.06 in 0.5 mi Calm Calm - N/A Fog Fog
5:53 AM 61.0 °F - 60.1 °F 97% 30.04 in 2.0 mi Calm Calm - N/A   Clear
6:08 AM 60.8 °F - 59.0 °F 94% 30.07 in 1.0 mi Calm Calm - N/A   Clear
6:13 AM 59.0 °F - 59.0 °F 100% 30.07 in 0.2 mi Calm Calm - N/A Fog Fog
6:35 AM 60.8 °F - 59.0 °F 94% 30.09 in 1.0 mi Calm Calm - N/A   Clear
6:53 AM 62.1 °F - 60.1 °F 93% 30.08 in 2.0 mi Calm Calm - N/A   Clear
7:21 AM 64.4 °F - 62.6 °F 94% 30.11 in 1.8 mi Calm Calm - N/A   Partly Cloudy
7:36 AM 64.4 °F - 62.6 °F 94% 30.11 in 2.0 mi Calm Calm - N/A   Partly Cloudy
7:53 AM 66.0 °F - 63.0 °F 90% 30.10 in 2.5 mi Calm Calm - N/A   Clear
8:05 AM 68.0 °F - 64.4 °F 88% 30.12 in 3.0 mi Calm Calm - N/A   Clear
8:53 AM 72.0 °F - 64.0 °F 76% 30.12 in 4.0 mi Calm Calm - N/A   Haze
9:53 AM 79.0 °F - 64.9 °F 62% 30.12 in 6.0 mi SW 5.8 mph - N/A   Haze
10:53 AM 82.9 °F 84.4 °F 64.0 °F 53% 30.12 in 7.0 mi WSW 8.1 mph - N/A   Clear
11:53 AM 84.0 °F 85.4 °F 64.0 °F 51% 30.10 in 8.0 mi South 5.8 mph - N/A   Clear
12:53 PM 87.1 °F 87.5 °F 62.1 °F 43% 30.06 in 9.0 mi SSW 6.9 mph - N/A   Clear
1:53 PM 87.1 °F 86.5 °F 59.0 °F 39% 30.06 in 9.0 mi SE 6.9 mph - N/A   Partly Cloudy
2:53 PM 87.1 °F 87.5 °F 62.1 °F 43% 30.05 in 9.0 mi SSE 8.1 mph - N/A   Clear
3:53 PM 86.0 °F 86.1 °F 61.0 °F 43% 30.04 in 9.0 mi Variable 4.6 mph - N/A   Clear
4:53 PM 86.0 °F 86.1 °F 61.0 °F 43% 30.04 in 10.0 mi South 4.6 mph - N/A   Partly Cloudy
5:53 PM 84.9 °F 85.4 °F 62.1 °F 46% 30.03 in 10.0 mi West 3.5 mph - N/A   Partly Cloudy
6:53 PM 82.9 °F 84.6 °F 64.9 °F 54% 30.00 in 9.0 mi ENE 4.6 mph - N/A   Clear
7:53 PM 77.0 °F - 69.1 °F 76% 30.03 in 8.0 mi Calm Calm - N/A   Clear
8:53 PM 75.9 °F - 63.0 °F 64% 30.04 in 10.0 mi Calm Calm - N/A   Clear
9:53 PM 69.1 °F - 64.9 °F 87% 30.06 in 9.0 mi Calm Calm - N/A   Clear
10:53 PM 66.9 °F - 64.9 °F 93% 30.07 in 7.0 mi Calm Calm - N/A   Clear
11:53 PM 64.9 °F - 64.0 °F 97% 30.08 in 6.0 mi Calm Calm - N/A   Clear